Year,Month,Day,Hour,Minute,Value (Times are PST for temperature in C)
2007,07,17,00,00,18.60
2007,07,17,00,01,18.60
2007,07,17,00,02,18.60
2007,07,17,00,03,18.60
2007,07,17,00,04,18.60
2007,07,17,00,05,18.60
2007,07,17,00,06,18.60
2007,07,17,00,07,18.60
2007,07,17,00,08,18.60
2007,07,17,00,09,18.60
2007,07,17,00,10,18.60
2007,07,17,00,11,18.50
2007,07,17,00,12,18.50
2007,07,17,00,13,18.40
2007,07,17,00,14,18.40
2007,07,17,00,15,18.40
2007,07,17,00,16,18.40
2007,07,17,00,17,18.40
2007,07,17,00,18,18.40
2007,07,17,00,19,18.40
2007,07,17,00,20,18.40
2007,07,17,00,21,18.40
2007,07,17,00,22,18.40
2007,07,17,00,23,18.40
2007,07,17,00,24,18.40
2007,07,17,00,25,18.40
2007,07,17,00,26,18.40
2007,07,17,00,27,18.50
2007,07,17,00,28,18.50
2007,07,17,00,29,18.50
2007,07,17,00,30,18.50
2007,07,17,00,31,18.50
2007,07,17,00,32,18.50
2007,07,17,00,33,18.40
2007,07,17,00,34,18.40
2007,07,17,00,35,18.40
2007,07,17,00,36,18.40
2007,07,17,00,37,18.40
2007,07,17,00,38,18.40
2007,07,17,00,39,18.40
2007,07,17,00,40,18.30
2007,07,17,00,41,18.30
2007,07,17,00,42,18.30
2007,07,17,00,43,18.30
2007,07,17,00,44,18.30
2007,07,17,00,45,18.30
2007,07,17,00,46,18.30
2007,07,17,00,47,18.30
2007,07,17,00,48,18.30
2007,07,17,00,49,18.30
2007,07,17,00,50,18.30
2007,07,17,00,51,18.20
2007,07,17,00,52,18.20
2007,07,17,00,53,18.20
2007,07,17,00,54,18.20
2007,07,17,00,55,18.20
2007,07,17,00,56,18.20
2007,07,17,00,57,18.20
2007,07,17,00,58,18.20
2007,07,17,00,59,18.20
2007,07,17,01,00,18.20
2007,07,17,01,01,18.20
2007,07,17,01,02,18.10
2007,07,17,01,03,18.10
2007,07,17,01,04,18.10
2007,07,17,01,05,18.10
2007,07,17,01,06,18.10
2007,07,17,01,07,18.10
2007,07,17,01,08,18.10
2007,07,17,01,09,18.10
2007,07,17,01,10,18.00
2007,07,17,01,11,17.90
2007,07,17,01,12,17.90
2007,07,17,01,13,17.90
2007,07,17,01,14,17.90
2007,07,17,01,15,17.90
2007,07,17,01,16,17.90
2007,07,17,01,17,17.90
2007,07,17,01,18,17.90
2007,07,17,01,19,17.90
2007,07,17,01,20,17.90
2007,07,17,01,21,17.90
2007,07,17,01,22,17.90
2007,07,17,01,23,17.90
2007,07,17,01,24,17.90
2007,07,17,01,25,17.90
2007,07,17,01,26,17.90
2007,07,17,01,27,17.90
2007,07,17,01,28,17.90
2007,07,17,01,29,17.90
2007,07,17,01,30,17.90
2007,07,17,01,31,17.90
2007,07,17,01,32,17.90
2007,07,17,01,33,17.90
2007,07,17,01,34,17.90
2007,07,17,01,35,17.90
2007,07,17,01,36,17.90
2007,07,17,01,37,18.00
2007,07,17,01,38,18.00
2007,07,17,01,39,17.90
2007,07,17,01,40,17.90
2007,07,17,01,41,17.90
2007,07,17,01,42,17.90
2007,07,17,01,43,17.90
2007,07,17,01,44,17.90
2007,07,17,01,45,17.90
2007,07,17,01,46,17.90
2007,07,17,01,47,17.90
2007,07,17,01,48,17.90
2007,07,17,01,49,17.90
2007,07,17,01,50,17.90
2007,07,17,01,51,17.90
2007,07,17,01,52,17.90
2007,07,17,01,53,17.90
2007,07,17,01,54,17.90
2007,07,17,01,55,17.90
2007,07,17,01,56,17.90
2007,07,17,01,57,17.90
2007,07,17,01,58,17.90
2007,07,17,01,59,17.90
2007,07,17,02,00,17.90
2007,07,17,02,01,17.80
2007,07,17,02,02,17.70
2007,07,17,02,03,17.70
2007,07,17,02,04,17.70
2007,07,17,02,05,17.60
2007,07,17,02,06,17.50
2007,07,17,02,07,17.40
2007,07,17,02,08,17.20
2007,07,17,02,09,17.10
2007,07,17,02,10,16.90
2007,07,17,02,11,16.80
2007,07,17,02,12,16.60
2007,07,17,02,13,16.40
2007,07,17,02,14,16.30
2007,07,17,02,15,16.20
2007,07,17,02,16,16.10
2007,07,17,02,17,16.00
2007,07,17,02,18,15.90
2007,07,17,02,19,15.80
2007,07,17,02,20,15.80
2007,07,17,02,21,15.70
2007,07,17,02,22,15.70
2007,07,17,02,23,15.70
2007,07,17,02,24,15.60
2007,07,17,02,25,15.60
2007,07,17,02,26,15.60
2007,07,17,02,27,15.50
2007,07,17,02,28,15.50
2007,07,17,02,29,15.50
2007,07,17,02,30,15.50
2007,07,17,02,31,15.50
2007,07,17,02,32,15.40
2007,07,17,02,33,15.40
2007,07,17,02,34,15.40
2007,07,17,02,35,15.40
2007,07,17,02,36,15.40
2007,07,17,02,37,15.40
2007,07,17,02,38,15.30
2007,07,17,02,39,15.30
2007,07,17,02,40,15.30
2007,07,17,02,41,15.30
2007,07,17,02,42,15.30
2007,07,17,02,43,15.30
2007,07,17,02,44,15.40
2007,07,17,02,45,15.40
2007,07,17,02,46,15.40
2007,07,17,02,47,15.40
2007,07,17,02,48,15.40
2007,07,17,02,49,15.40
2007,07,17,02,50,15.40
2007,07,17,02,51,15.40
2007,07,17,02,52,15.30
2007,07,17,02,53,15.30
2007,07,17,02,54,15.30
2007,07,17,02,55,15.30
2007,07,17,02,56,15.30
2007,07,17,02,57,15.30
2007,07,17,02,58,15.30
2007,07,17,02,59,15.30
2007,07,17,03,00,15.30
2007,07,17,03,01,15.30
2007,07,17,03,02,15.30
2007,07,17,03,03,15.20
2007,07,17,03,04,15.20
2007,07,17,03,05,15.20
2007,07,17,03,06,15.20
2007,07,17,03,07,15.20
2007,07,17,03,08,15.20
2007,07,17,03,09,15.20
2007,07,17,03,10,15.30
2007,07,17,03,11,15.30
2007,07,17,03,12,15.30
2007,07,17,03,13,15.30
2007,07,17,03,14,15.30
2007,07,17,03,15,15.30
2007,07,17,03,16,15.30
2007,07,17,03,17,15.30
2007,07,17,03,18,15.30
2007,07,17,03,19,15.30
2007,07,17,03,20,15.30
2007,07,17,03,21,15.30
2007,07,17,03,22,15.30
2007,07,17,03,23,15.30
2007,07,17,03,24,15.30
2007,07,17,03,25,15.30
2007,07,17,03,26,15.40
2007,07,17,03,27,15.40
2007,07,17,03,28,15.40
2007,07,17,03,29,15.40
2007,07,17,03,30,15.40
2007,07,17,03,31,15.40
2007,07,17,03,32,15.50
2007,07,17,03,33,15.50
2007,07,17,03,34,15.50
2007,07,17,03,35,15.50
2007,07,17,03,36,15.50
2007,07,17,03,37,15.60
2007,07,17,03,38,15.60
2007,07,17,03,39,15.60
2007,07,17,03,40,15.60
2007,07,17,03,41,15.60
2007,07,17,03,42,15.60
2007,07,17,03,43,15.60
2007,07,17,03,44,15.60
2007,07,17,03,45,15.60
2007,07,17,03,46,15.60
2007,07,17,03,47,15.60
2007,07,17,03,48,15.60
2007,07,17,03,49,15.60
2007,07,17,03,50,15.70
2007,07,17,03,51,15.70
2007,07,17,03,52,15.70
2007,07,17,03,53,15.70
2007,07,17,03,54,15.70
2007,07,17,03,55,15.70
2007,07,17,03,56,15.70
2007,07,17,03,57,15.70
2007,07,17,03,58,15.70
2007,07,17,03,59,15.70
2007,07,17,04,00,15.70
2007,07,17,04,01,15.70
2007,07,17,04,02,15.70
2007,07,17,04,03,15.70
2007,07,17,04,04,15.70
2007,07,17,04,05,15.80
2007,07,17,04,06,15.80
2007,07,17,04,07,15.80
2007,07,17,04,08,15.80
2007,07,17,04,09,15.70
2007,07,17,04,10,15.70
2007,07,17,04,11,15.70
2007,07,17,04,12,15.70
2007,07,17,04,13,15.70
2007,07,17,04,14,15.70
2007,07,17,04,15,15.60
2007,07,17,04,16,15.60
2007,07,17,04,17,15.60
2007,07,17,04,18,15.50
2007,07,17,04,19,15.50
2007,07,17,04,20,15.50
2007,07,17,04,21,15.50
2007,07,17,04,22,15.40
2007,07,17,04,23,15.40
2007,07,17,04,24,15.30
2007,07,17,04,25,15.30
2007,07,17,04,26,15.30
2007,07,17,04,27,15.30
2007,07,17,04,28,15.30
2007,07,17,04,29,15.30
2007,07,17,04,30,15.30
2007,07,17,04,31,15.30
2007,07,17,04,32,15.30
2007,07,17,04,33,15.30
2007,07,17,04,34,15.30
2007,07,17,04,35,15.30
2007,07,17,04,36,15.30
2007,07,17,04,37,15.30
2007,07,17,04,38,15.30
2007,07,17,04,39,15.30
2007,07,17,04,40,15.30
2007,07,17,04,41,15.30
2007,07,17,04,42,15.30
2007,07,17,04,43,15.30
2007,07,17,04,44,15.30
2007,07,17,04,45,15.30
2007,07,17,04,46,15.30
2007,07,17,04,47,15.30
2007,07,17,04,48,15.30
2007,07,17,04,49,15.30
2007,07,17,04,50,15.30
2007,07,17,04,51,15.30
2007,07,17,04,52,15.30
2007,07,17,04,53,15.30
2007,07,17,04,54,15.30
2007,07,17,04,55,15.30
2007,07,17,04,56,15.20
2007,07,17,04,57,15.20
2007,07,17,04,58,15.20
2007,07,17,04,59,15.20
2007,07,17,05,00,15.10
2007,07,17,05,01,15.10
2007,07,17,05,02,15.10
2007,07,17,05,03,15.10
2007,07,17,05,04,15.10
2007,07,17,05,05,15.10
2007,07,17,05,06,15.00
2007,07,17,05,07,15.00
2007,07,17,05,08,15.00
2007,07,17,05,09,15.10
2007,07,17,05,10,15.10
2007,07,17,05,11,15.10
2007,07,17,05,12,15.10
2007,07,17,05,13,15.00
2007,07,17,05,14,15.00
2007,07,17,05,15,15.00
2007,07,17,05,16,15.00
2007,07,17,05,17,15.00
2007,07,17,05,18,15.00
2007,07,17,05,19,15.00
2007,07,17,05,20,15.00
2007,07,17,05,21,15.00
2007,07,17,05,22,15.00
2007,07,17,05,23,15.00
2007,07,17,05,24,15.00
2007,07,17,05,25,15.00
2007,07,17,05,26,15.00
2007,07,17,05,27,15.00
2007,07,17,05,28,15.00
2007,07,17,05,29,15.00
2007,07,17,05,30,15.00
2007,07,17,05,31,15.00
2007,07,17,05,32,15.00
2007,07,17,05,33,15.00
2007,07,17,05,34,15.00
2007,07,17,05,35,15.00
2007,07,17,05,36,15.10
2007,07,17,05,37,15.10
2007,07,17,05,38,15.10
2007,07,17,05,39,15.10
2007,07,17,05,40,15.10
2007,07,17,05,41,15.10
2007,07,17,05,42,15.10
2007,07,17,05,43,15.20
2007,07,17,05,44,15.20
2007,07,17,05,45,15.20
2007,07,17,05,46,15.20
2007,07,17,05,47,15.20
2007,07,17,05,48,15.20
2007,07,17,05,49,15.20
2007,07,17,05,50,15.20
2007,07,17,05,51,15.20
2007,07,17,05,52,15.20
2007,07,17,05,53,15.20
2007,07,17,05,54,15.20
2007,07,17,05,55,15.20
2007,07,17,05,56,15.20
2007,07,17,05,57,15.20
2007,07,17,05,58,15.20
2007,07,17,05,59,15.10
2007,07,17,06,00,15.10
2007,07,17,06,01,15.10
2007,07,17,06,02,15.20
2007,07,17,06,03,15.20
2007,07,17,06,04,15.20
2007,07,17,06,05,15.20
2007,07,17,06,06,15.20
2007,07,17,06,07,15.20
2007,07,17,06,08,15.20
2007,07,17,06,09,15.20
2007,07,17,06,10,15.20
2007,07,17,06,11,15.20
2007,07,17,06,12,15.20
2007,07,17,06,13,15.20
2007,07,17,06,14,15.20
2007,07,17,06,15,15.20
2007,07,17,06,16,15.20
2007,07,17,06,17,15.20
2007,07,17,06,18,15.20
2007,07,17,06,19,15.10
2007,07,17,06,20,15.10
2007,07,17,06,21,15.20
2007,07,17,06,22,15.10
2007,07,17,06,23,15.10
2007,07,17,06,24,15.10
2007,07,17,06,25,15.10
2007,07,17,06,26,15.20
2007,07,17,06,27,15.20
2007,07,17,06,28,15.20
2007,07,17,06,29,15.20
2007,07,17,06,30,15.20
2007,07,17,06,31,15.20
2007,07,17,06,32,15.20
2007,07,17,06,33,15.20
2007,07,17,06,34,15.20
2007,07,17,06,35,15.20
2007,07,17,06,36,15.20
2007,07,17,06,37,15.20
2007,07,17,06,38,15.20
2007,07,17,06,39,15.20
2007,07,17,06,40,15.20
2007,07,17,06,41,15.20
2007,07,17,06,42,15.20
2007,07,17,06,43,15.20
2007,07,17,06,44,15.20
2007,07,17,06,45,15.20
2007,07,17,06,46,15.20
2007,07,17,06,47,15.20
2007,07,17,06,48,15.20
2007,07,17,06,49,15.20
2007,07,17,06,50,15.10
2007,07,17,06,51,15.10
2007,07,17,06,52,15.10
2007,07,17,06,53,15.10
2007,07,17,06,54,15.10
2007,07,17,06,55,15.10
2007,07,17,06,56,15.10
2007,07,17,06,57,15.10
2007,07,17,06,58,15.10
2007,07,17,06,59,15.10
2007,07,17,07,00,15.10
2007,07,17,07,01,15.00
2007,07,17,07,02,15.00
2007,07,17,07,03,15.00
2007,07,17,07,04,14.90
2007,07,17,07,05,14.90
2007,07,17,07,06,14.90
2007,07,17,07,07,14.90
2007,07,17,07,08,14.90
2007,07,17,07,09,14.90
2007,07,17,07,10,14.90
2007,07,17,07,11,14.90
2007,07,17,07,12,14.90
2007,07,17,07,13,14.90
2007,07,17,07,14,14.90
2007,07,17,07,15,14.90
2007,07,17,07,16,14.90
2007,07,17,07,17,14.90
2007,07,17,07,18,14.90
2007,07,17,07,19,14.90
2007,07,17,07,20,14.90
2007,07,17,07,21,14.90
2007,07,17,07,22,14.90
2007,07,17,07,23,14.90
2007,07,17,07,24,14.90
2007,07,17,07,25,14.90
2007,07,17,07,26,14.90
2007,07,17,07,27,14.90
2007,07,17,07,28,14.90
2007,07,17,07,29,14.90
2007,07,17,07,30,14.90
2007,07,17,07,31,14.90
2007,07,17,07,32,14.90
2007,07,17,07,33,14.90
2007,07,17,07,34,14.90
2007,07,17,07,35,14.90
2007,07,17,07,36,14.90
2007,07,17,07,37,14.90
2007,07,17,07,38,14.90
2007,07,17,07,39,14.80
2007,07,17,07,40,14.80
2007,07,17,07,41,14.80
2007,07,17,07,42,14.80
2007,07,17,07,43,14.80
2007,07,17,07,44,14.80
2007,07,17,07,45,14.80
2007,07,17,07,46,14.80
2007,07,17,07,47,14.80
2007,07,17,07,48,14.80
2007,07,17,07,49,14.80
2007,07,17,07,50,14.80
2007,07,17,07,51,14.80
2007,07,17,07,52,14.70
2007,07,17,07,53,14.70
2007,07,17,07,54,14.70
2007,07,17,07,55,14.70
2007,07,17,07,56,14.70
2007,07,17,07,57,14.70
2007,07,17,07,58,14.70
2007,07,17,07,59,14.70
2007,07,17,08,00,14.70
2007,07,17,08,01,14.70
2007,07,17,08,02,14.70
2007,07,17,08,03,14.70
2007,07,17,08,04,14.70
2007,07,17,08,05,14.70
2007,07,17,08,06,14.70
2007,07,17,08,07,14.70
2007,07,17,08,08,14.70
2007,07,17,08,09,14.70
2007,07,17,08,10,14.70
2007,07,17,08,11,14.70
2007,07,17,08,12,14.70
2007,07,17,08,13,14.70
2007,07,17,08,14,14.70
2007,07,17,08,15,14.80
2007,07,17,08,16,14.80
2007,07,17,08,17,14.80
2007,07,17,08,18,14.80
2007,07,17,08,19,14.80
2007,07,17,08,20,14.80
2007,07,17,08,21,14.80
2007,07,17,08,22,14.80
2007,07,17,08,23,14.80
2007,07,17,08,24,14.80
2007,07,17,08,25,14.80
2007,07,17,08,26,14.80
2007,07,17,08,27,14.80
2007,07,17,08,28,14.80
2007,07,17,08,29,14.80
2007,07,17,08,30,14.80
2007,07,17,08,31,14.80
2007,07,17,08,32,14.90
2007,07,17,08,33,14.90
2007,07,17,08,34,14.90
2007,07,17,08,35,14.90
2007,07,17,08,36,14.80
2007,07,17,08,37,14.80
2007,07,17,08,38,14.80
2007,07,17,08,39,14.80
2007,07,17,08,40,14.80
2007,07,17,08,41,14.70
2007,07,17,08,42,14.70
2007,07,17,08,43,14.70
2007,07,17,08,44,14.80
2007,07,17,08,45,14.80
2007,07,17,08,46,14.80
2007,07,17,08,47,14.80
2007,07,17,08,48,14.70
2007,07,17,08,49,14.70
2007,07,17,08,50,14.70
2007,07,17,08,51,14.70
2007,07,17,08,52,14.70
2007,07,17,08,53,14.60
2007,07,17,08,54,14.60
2007,07,17,08,55,14.60
2007,07,17,08,56,14.60
2007,07,17,08,57,14.60
2007,07,17,08,58,14.50
2007,07,17,08,59,14.50
2007,07,17,09,00,14.40
2007,07,17,09,01,14.30
2007,07,17,09,02,14.20
2007,07,17,09,03,14.20
2007,07,17,09,04,14.10
2007,07,17,09,05,14.10
2007,07,17,09,06,14.00
2007,07,17,09,07,14.00
2007,07,17,09,08,14.00
2007,07,17,09,09,14.00
2007,07,17,09,10,13.90
2007,07,17,09,11,13.90
2007,07,17,09,12,13.90
2007,07,17,09,13,13.90
2007,07,17,09,14,13.90
2007,07,17,09,15,13.90
2007,07,17,09,16,13.90
2007,07,17,09,17,13.90
2007,07,17,09,18,14.00
2007,07,17,09,19,14.00
2007,07,17,09,20,14.10
2007,07,17,09,21,14.10
2007,07,17,09,22,14.10
2007,07,17,09,23,14.10
2007,07,17,09,24,14.10
2007,07,17,09,25,14.10
2007,07,17,09,26,14.00
2007,07,17,09,27,14.00
2007,07,17,09,28,14.00
2007,07,17,09,29,14.00
2007,07,17,09,30,13.90
2007,07,17,09,31,13.90
2007,07,17,09,32,13.90
2007,07,17,09,33,13.90
2007,07,17,09,34,13.90
2007,07,17,09,35,13.90
2007,07,17,09,36,13.80
2007,07,17,09,37,13.80
2007,07,17,09,38,13.80
2007,07,17,09,39,13.80
2007,07,17,09,40,13.80
2007,07,17,09,41,13.80
2007,07,17,09,42,13.80
2007,07,17,09,43,13.90
2007,07,17,09,44,13.90
2007,07,17,09,45,13.90
2007,07,17,09,46,13.90
2007,07,17,09,47,14.00
2007,07,17,09,48,14.00
2007,07,17,09,49,14.00
2007,07,17,09,50,14.10
2007,07,17,09,51,14.10
2007,07,17,09,52,14.20
2007,07,17,09,53,14.20
2007,07,17,09,54,14.20
2007,07,17,09,55,14.20
2007,07,17,09,56,14.20
2007,07,17,09,57,14.20
2007,07,17,09,58,14.20
2007,07,17,09,59,14.20
2007,07,17,10,00,14.30
2007,07,17,10,01,14.30
2007,07,17,10,02,14.30
2007,07,17,10,03,14.30
2007,07,17,10,04,14.30
2007,07,17,10,05,14.30
2007,07,17,10,06,14.30
2007,07,17,10,07,14.40
2007,07,17,10,08,14.40
2007,07,17,10,09,14.40
2007,07,17,10,10,14.30
2007,07,17,10,11,14.30
2007,07,17,10,12,14.30
2007,07,17,10,13,14.30
2007,07,17,10,14,14.20
2007,07,17,10,15,14.20
2007,07,17,10,16,14.20
2007,07,17,10,17,14.20
2007,07,17,10,18,14.20
2007,07,17,10,19,14.20
2007,07,17,10,20,14.20
2007,07,17,10,21,14.30
2007,07,17,10,22,14.30
2007,07,17,10,23,14.30
2007,07,17,10,24,14.30
2007,07,17,10,25,14.30
2007,07,17,10,26,14.40
2007,07,17,10,27,14.50
2007,07,17,10,28,14.60
2007,07,17,10,29,14.60
2007,07,17,10,30,14.70
2007,07,17,10,31,14.70
2007,07,17,10,32,14.70
2007,07,17,10,33,14.70
2007,07,17,10,34,14.80
2007,07,17,10,35,14.80
2007,07,17,10,36,14.80
2007,07,17,10,37,14.80
2007,07,17,10,38,14.80
2007,07,17,10,39,14.90
2007,07,17,10,40,14.90
2007,07,17,10,41,15.00
2007,07,17,10,42,15.00
2007,07,17,10,43,15.10
2007,07,17,10,44,15.10
2007,07,17,10,45,15.20
2007,07,17,10,46,15.20
2007,07,17,10,47,15.30
2007,07,17,10,48,15.30
2007,07,17,10,49,15.30
2007,07,17,10,50,15.40
2007,07,17,10,51,15.40
2007,07,17,10,52,15.40
2007,07,17,10,53,15.40
2007,07,17,10,54,15.40
2007,07,17,10,55,15.50
2007,07,17,10,56,15.50
2007,07,17,10,57,15.50
2007,07,17,10,58,15.50
2007,07,17,10,59,15.60
2007,07,17,11,00,15.60
2007,07,17,11,01,15.60
2007,07,17,11,02,15.70
2007,07,17,11,03,15.70
2007,07,17,11,04,15.70
2007,07,17,11,05,15.70
2007,07,17,11,06,15.80
2007,07,17,11,07,15.80
2007,07,17,11,08,15.80
2007,07,17,11,09,15.80
2007,07,17,11,10,15.80
2007,07,17,11,11,15.80
2007,07,17,11,12,15.80
2007,07,17,11,13,15.80
2007,07,17,11,14,15.80
2007,07,17,11,15,15.90
2007,07,17,11,16,15.90
2007,07,17,11,17,15.90
2007,07,17,11,18,15.90
2007,07,17,11,19,16.10
2007,07,17,11,20,16.10
2007,07,17,11,21,16.10
2007,07,17,11,22,16.10
2007,07,17,11,23,16.10
2007,07,17,11,24,16.10
2007,07,17,11,25,16.10
2007,07,17,11,26,16.00
2007,07,17,11,27,15.80
2007,07,17,11,28,15.80
2007,07,17,11,29,15.70
2007,07,17,11,30,15.70
2007,07,17,11,31,15.70
2007,07,17,11,32,15.60
2007,07,17,11,33,15.60
2007,07,17,11,34,15.60
2007,07,17,11,35,15.60
2007,07,17,11,36,15.60
2007,07,17,11,37,15.60
2007,07,17,11,38,15.50
2007,07,17,11,39,15.40
2007,07,17,11,40,15.40
2007,07,17,11,41,15.40
2007,07,17,11,42,15.40
2007,07,17,11,43,15.40
2007,07,17,11,44,15.40
2007,07,17,11,45,15.40
2007,07,17,11,46,15.40
2007,07,17,11,47,15.40
2007,07,17,11,48,15.40
2007,07,17,11,49,15.40
2007,07,17,11,50,15.30
2007,07,17,11,51,15.30
2007,07,17,11,52,15.20
2007,07,17,11,53,15.00
2007,07,17,11,54,14.90
2007,07,17,11,55,14.80
2007,07,17,11,56,14.80
2007,07,17,11,57,14.80
2007,07,17,11,58,14.80
2007,07,17,11,59,14.80
2007,07,17,12,00,14.80
2007,07,17,12,01,14.70
2007,07,17,12,02,14.70
2007,07,17,12,03,14.60
2007,07,17,12,04,14.40
2007,07,17,12,05,14.30
2007,07,17,12,06,14.20
2007,07,17,12,07,14.20
2007,07,17,12,08,14.20
2007,07,17,12,09,14.10
2007,07,17,12,10,14.10
2007,07,17,12,11,14.00
2007,07,17,12,12,14.00
2007,07,17,12,13,14.10
2007,07,17,12,14,14.10
2007,07,17,12,15,14.10
2007,07,17,12,16,14.10
2007,07,17,12,17,14.10
2007,07,17,12,18,14.10
2007,07,17,12,19,14.10
2007,07,17,12,20,14.10
2007,07,17,12,21,14.20
2007,07,17,12,22,14.20
2007,07,17,12,23,14.20
2007,07,17,12,24,14.30
2007,07,17,12,25,14.40
2007,07,17,12,26,14.40
2007,07,17,12,27,14.50
2007,07,17,12,28,14.50
2007,07,17,12,29,14.50
2007,07,17,12,30,14.50
2007,07,17,12,31,14.60
2007,07,17,12,32,14.70
2007,07,17,12,33,14.80
2007,07,17,12,34,14.80
2007,07,17,12,35,14.80
2007,07,17,12,36,14.90
2007,07,17,12,37,14.90
2007,07,17,12,38,14.90
2007,07,17,12,39,15.00
2007,07,17,12,40,15.00
2007,07,17,12,41,14.90
2007,07,17,12,42,14.90
2007,07,17,12,43,14.90
2007,07,17,12,44,15.00
2007,07,17,12,45,15.00
2007,07,17,12,46,15.00
2007,07,17,12,47,15.00
2007,07,17,12,48,15.00
2007,07,17,12,49,15.00
2007,07,17,12,50,15.10
2007,07,17,12,51,15.10
2007,07,17,12,52,15.00
2007,07,17,12,53,15.00
2007,07,17,12,54,15.00
2007,07,17,12,55,15.00
2007,07,17,12,56,15.00
2007,07,17,12,57,15.00
2007,07,17,12,58,15.00
2007,07,17,12,59,15.10
2007,07,17,13,00,15.10
2007,07,17,13,01,15.10
2007,07,17,13,02,15.10
2007,07,17,13,03,15.00
2007,07,17,13,04,14.90
2007,07,17,13,05,14.90
2007,07,17,13,06,14.80
2007,07,17,13,07,14.80
2007,07,17,13,08,14.80
2007,07,17,13,09,14.70
2007,07,17,13,10,14.60
2007,07,17,13,11,14.60
2007,07,17,13,12,14.60
2007,07,17,13,13,14.50
2007,07,17,13,14,14.50
2007,07,17,13,15,14.40
2007,07,17,13,16,14.40
2007,07,17,13,17,14.30
2007,07,17,13,18,14.30
2007,07,17,13,19,14.30
2007,07,17,13,20,14.30
2007,07,17,13,21,14.20
2007,07,17,13,22,14.20
2007,07,17,13,23,14.20
2007,07,17,13,24,14.20
2007,07,17,13,25,14.20
2007,07,17,13,26,14.20
2007,07,17,13,27,14.20
2007,07,17,13,28,14.20
2007,07,17,13,29,14.30
2007,07,17,13,30,14.40
2007,07,17,13,31,14.50
2007,07,17,13,32,14.50
2007,07,17,13,33,14.50
2007,07,17,13,34,14.50
2007,07,17,13,35,14.50
2007,07,17,13,36,14.40
2007,07,17,13,37,14.50
2007,07,17,13,38,14.50
2007,07,17,13,39,14.40
2007,07,17,13,40,14.40
2007,07,17,13,41,14.40
2007,07,17,13,42,14.40
2007,07,17,13,43,14.40
2007,07,17,13,44,14.40
2007,07,17,13,45,14.40
2007,07,17,13,46,14.40
2007,07,17,13,47,14.40
2007,07,17,13,48,14.50
2007,07,17,13,49,14.50
2007,07,17,13,50,14.50
2007,07,17,13,51,14.50
2007,07,17,13,52,14.50
2007,07,17,13,53,14.60
2007,07,17,13,54,14.60
2007,07,17,13,55,14.60
2007,07,17,13,56,14.60
2007,07,17,13,57,14.60
2007,07,17,13,58,14.60
2007,07,17,13,59,14.60
2007,07,17,14,00,14.60
2007,07,17,14,01,14.60
2007,07,17,14,02,14.70
2007,07,17,14,03,14.70
2007,07,17,14,04,14.80
2007,07,17,14,05,14.80
2007,07,17,14,06,14.80
2007,07,17,14,07,14.90
2007,07,17,14,08,14.90
2007,07,17,14,09,15.00
2007,07,17,14,10,15.00
2007,07,17,14,11,15.10
2007,07,17,14,12,15.10
2007,07,17,14,13,15.20
2007,07,17,14,14,15.20
2007,07,17,14,15,15.20
2007,07,17,14,16,15.30
2007,07,17,14,17,15.30
2007,07,17,14,18,15.30
2007,07,17,14,19,15.30
2007,07,17,14,20,15.30
2007,07,17,14,21,15.30
2007,07,17,14,22,15.40
2007,07,17,14,23,15.40
2007,07,17,14,24,15.50
2007,07,17,14,25,15.50
2007,07,17,14,26,15.50
2007,07,17,14,27,15.60
2007,07,17,14,28,15.60
2007,07,17,14,29,15.60
2007,07,17,14,30,15.60
2007,07,17,14,31,15.70
2007,07,17,14,32,15.80
2007,07,17,14,33,15.90
2007,07,17,14,34,15.90
2007,07,17,14,35,15.90
2007,07,17,14,36,15.90
2007,07,17,14,37,15.90
2007,07,17,14,38,15.90
2007,07,17,14,39,15.90
2007,07,17,14,40,16.00
2007,07,17,14,41,16.10
2007,07,17,14,42,16.10
2007,07,17,14,43,16.10
2007,07,17,14,44,16.20
2007,07,17,14,45,16.20
2007,07,17,14,46,16.30
2007,07,17,14,47,16.30
2007,07,17,14,48,16.30
2007,07,17,14,49,16.30
2007,07,17,14,50,16.20
2007,07,17,14,51,16.20
2007,07,17,14,52,16.20
2007,07,17,14,53,16.30
2007,07,17,14,54,16.30
2007,07,17,14,55,16.40
2007,07,17,14,56,16.40
2007,07,17,14,57,16.40
2007,07,17,14,58,16.40
2007,07,17,14,59,16.40
2007,07,17,15,00,16.50
2007,07,17,15,01,16.60
2007,07,17,15,02,16.60
2007,07,17,15,03,16.70
2007,07,17,15,04,16.70
2007,07,17,15,05,16.70
2007,07,17,15,06,16.70
2007,07,17,15,07,16.60
2007,07,17,15,08,16.60
2007,07,17,15,09,16.60
2007,07,17,15,10,16.70
2007,07,17,15,11,16.80
2007,07,17,15,12,16.90
2007,07,17,15,13,17.00
2007,07,17,15,14,17.10
2007,07,17,15,15,17.10
2007,07,17,15,16,17.10
2007,07,17,15,17,17.20
2007,07,17,15,18,17.20
2007,07,17,15,19,17.30
2007,07,17,15,20,17.30
2007,07,17,15,21,17.30
2007,07,17,15,22,17.30
2007,07,17,15,23,17.30
2007,07,17,15,24,17.20
2007,07,17,15,25,17.20
2007,07,17,15,26,17.20
2007,07,17,15,27,17.10
2007,07,17,15,28,17.10
2007,07,17,15,29,17.10
2007,07,17,15,30,17.10
2007,07,17,15,31,17.10
2007,07,17,15,32,17.10
2007,07,17,15,33,17.10
2007,07,17,15,34,17.10
2007,07,17,15,35,17.10
2007,07,17,15,36,17.20
2007,07,17,15,37,17.30
2007,07,17,15,38,17.30
2007,07,17,15,39,17.30
2007,07,17,15,40,17.30
2007,07,17,15,41,17.30
2007,07,17,15,42,17.30
2007,07,17,15,43,17.30
2007,07,17,15,44,17.30
2007,07,17,15,45,17.40
2007,07,17,15,46,17.50
2007,07,17,15,47,17.50
2007,07,17,15,48,17.60
2007,07,17,15,49,17.60
2007,07,17,15,50,17.60
2007,07,17,15,51,17.70
2007,07,17,15,52,17.80
2007,07,17,15,53,17.90
2007,07,17,15,54,18.10
2007,07,17,15,55,18.20
2007,07,17,15,56,18.20
2007,07,17,15,57,18.20
2007,07,17,15,58,18.20
2007,07,17,15,59,18.20
2007,07,17,16,00,18.20
2007,07,17,16,01,18.20
2007,07,17,16,02,18.20
2007,07,17,16,03,18.30
2007,07,17,16,04,18.30
2007,07,17,16,05,18.30
2007,07,17,16,06,18.40
2007,07,17,16,07,18.50
2007,07,17,16,08,18.60
2007,07,17,16,09,18.60
2007,07,17,16,10,18.70
2007,07,17,16,11,18.70
2007,07,17,16,12,18.70
2007,07,17,16,13,18.70
2007,07,17,16,14,18.80
2007,07,17,16,15,18.80
2007,07,17,16,16,18.90
2007,07,17,16,17,18.90
2007,07,17,16,18,19.10
2007,07,17,16,19,19.10
2007,07,17,16,20,19.10
2007,07,17,16,21,19.10
2007,07,17,16,22,19.10
2007,07,17,16,23,19.10
2007,07,17,16,24,19.00
2007,07,17,16,25,18.90
2007,07,17,16,26,18.90
2007,07,17,16,27,18.90
2007,07,17,16,28,19.10
2007,07,17,16,29,19.10
2007,07,17,16,30,19.10
2007,07,17,16,31,19.10
2007,07,17,16,32,19.10
2007,07,17,16,33,19.10
2007,07,17,16,34,19.10
2007,07,17,16,35,19.10
2007,07,17,16,36,19.10
2007,07,17,16,37,19.10
2007,07,17,16,38,19.20
2007,07,17,16,39,19.10
2007,07,17,16,40,19.10
2007,07,17,16,41,19.10
2007,07,17,16,42,19.10
2007,07,17,16,43,19.10
2007,07,17,16,44,19.10
2007,07,17,16,45,19.10
2007,07,17,16,46,19.10
2007,07,17,16,47,19.10
2007,07,17,16,48,19.10
2007,07,17,16,49,19.10
2007,07,17,16,50,19.20
2007,07,17,16,51,19.20
2007,07,17,16,52,19.20
2007,07,17,16,53,19.30
2007,07,17,16,54,19.40
2007,07,17,16,55,19.40
2007,07,17,16,56,19.50
2007,07,17,16,57,19.50
2007,07,17,16,58,19.60
2007,07,17,16,59,19.60
2007,07,17,17,00,19.70
2007,07,17,17,01,19.70
2007,07,17,17,02,19.70
2007,07,17,17,03,19.70
2007,07,17,17,04,19.80
2007,07,17,17,05,19.80
2007,07,17,17,06,19.90
2007,07,17,17,07,19.90
2007,07,17,17,08,19.90
2007,07,17,17,09,19.90
2007,07,17,17,10,19.90
2007,07,17,17,11,19.90
2007,07,17,17,12,19.90
2007,07,17,17,13,20.10
2007,07,17,17,14,20.00
2007,07,17,17,15,19.90
2007,07,17,17,16,19.90
2007,07,17,17,17,19.90
2007,07,17,17,18,19.90
2007,07,17,17,19,19.90